Content
SEND FEEDBACK

Daily
Averages
Monthly
Summary
United States of America

VERONA, MISSISSIPPI


Home > North America > United States > Mississippi
Elevation: 276 feet     Latitude: 34 16N     Longitude: 088 44W

WEATHER
 
SELECT A DAY
Number of Records: 153,507;   Date Range: 1/1/00 - 10/22/14
 
SHARE

PRINT THIS DATA

[ ← Previous Day ]
WEATHER ALMANAC - JANUARY 31, 2013
[ Next Day → ]
[ °C ]   °F
Weather ElementAverageHighLow
Temperature43.1 °F54 °F (2:53 pm)28.9 °F (5:53 am)
Dewpoint26.7 °F30.9 °F (11:53 pm)24.1 °F (12:53 pm)
Humidity54.8 %85 % (5:53 am)33 % (3:53 pm)
Barometer30.15 in30.26 in (11:53 pm)30.06 in (1:53 am)
Wind Speed6.4 mph12.7 mph (3:53 pm)
Wind Gust24.2 mph (11:53 pm)
Weather ElementAverage
Visibility10 mi
Wind DirectionSW (223.9 °)

Weather ElementTotal
Precipitation---
Heating Degree Days23.6 (Base 65)
Averaged from 23 records on January 31, 2013
WEATHER CONDITIONS BREAKOUT
WIND DIRECTION BREAKOUT
WEATHER BY HOUR - JANUARY 31, 2013
[ °C ]   °F
Local TimeTemperatureDewpointHumidityBarometerVisibilityWind DirectionWind SpeedGust SpeedPrecipitationEventsConditions
1:53 AM36.0 °F25.0 °F64 %30.06 in10.0 miNW (320°)3.5 mphClear
2:53 AM35.1 °F25.0 °F67 %30.07 in10.0 miNW (320°)4.6 mphClear
3:53 AM34.0 °F25.0 °F70 %30.09 in10.0 miWNW (290°)3.5 mphClear
4:53 AM32.0 °F25.0 °F75 %30.12 in10.0 miCalmClear
5:53 AM28.9 °F25.0 °F85 %30.13 in10.0 miSW (230°)4.6 mphClear
6:53 AM30.0 °F25.0 °F82 %30.16 in10.0 miCalmClear
7:53 AM34.0 °F27.0 °F75 %30.19 in10.0 miWest (270°)5.8 mphClear
8:53 AM39.0 °F27.0 °F62 %30.19 in10.0 miVariable6.9 mphClear
9:53 AM42.1 °F25.0 °F51 %30.21 in10.0 miNW (320°)8.1 mphClear
10:53 AM45.0 °F26.1 °F48 %30.21 in10.0 miVariable5.8 mphClear
11:53 AM48.9 °F27.0 °F43 %30.20 in10.0 miSW (230°)6.9 mphClear
12:53 PM50.0 °F24.1 °F36 %30.17 in10.0 miWest (270°)9.2 mph19.6 mphClear
1:53 PM53.1 °F26.1 °F35 %30.15 in10.0 miWest (270°)11.5 mph17.3 mphClear
2:53 PM54.0 °F27.0 °F35 %30.13 in10.0 miWSW (240°)9.2 mph17.3 mphClear
3:53 PM54.0 °F25.0 °F33 %30.12 in10.0 miWSW (250°)12.7 mph18.4 mphClear
4:53 PM53.1 °F26.1 °F35 %30.10 in10.0 miWSW (240°)9.2 mphClear
5:53 PM48.9 °F26.1 °F41 %30.14 in10.0 miWSW (250°)3.5 mphClear
6:53 PM46.9 °F28.0 °F48 %30.14 in10.0 miWSW (240°)5.8 mphClear
7:53 PM45.0 °F28.9 °F53 %30.16 in10.0 miWSW (240°)5.8 mphClear
8:53 PM44.1 °F30.0 °F58 %30.17 in10.0 miSW (230°)5.8 mphClear
9:53 PM46.9 °F28.9 °F50 %30.17 in10.0 miWSW (250°)8.1 mphClear
10:53 PM46.9 °F30.0 °F52 %30.21 in10.0 miNNW (330°)5.8 mphClear
11:53 PM43.0 °F30.9 °F62 %30.26 in10.0 miNorth (360°)11.5 mph24.2 mphClear
Hourly data recorded from KTUP, located miles away from Verona, Mississippi







STORIES FROM OUR PARTNERS